GW6964 Weather Reports


Display with metric or nautical units.
time (UTC)temp
F
wind
direction
speed
MPH
gust
MPH
rain 1hr
in
rain 24hr
in
rain mn
in
humidity
%
barometer
mb
20260505124700 57 93 2.0 8.0 0.00 0.99 0.99 93 1006.5
20260505124157 57 52 5.0 7.0 0.00 0.99 0.99 94 1006.4
20260505123653 57 76 3.0 6.0 0.00 0.99 0.99 94 1006.4
20260505123150 58 96 4.0 6.0 0.00 0.99 0.99 94 1006.4
20260505122646 58 82 1.0 7.0 0.00 0.99 0.99 94 1006.2
20260505122144 59 33 3.0 7.0 0.00 0.99 0.99 95 1006.4
20260505121640 59 78 4.0 8.0 0.00 0.99 0.99 95 1005.9
20260505121137 59 53 2.0 4.0 0.00 0.99 0.99 95 1005.9
20260505120634 60 101 3.0 7.0 0.00 0.99 0.99 96 1005.7
20260505120130 60 52 6.0 7.0 0.00 0.99 0.99 96 1005.6
20260505115629 60 100 2.0 2.0 0.00 0.99 0.99 96 1005.5
20260505115127 60 98 2.0 3.0 0.00 0.99 0.99 96 1005.4
20260505114624 60 103 0.0 1.0 0.00 0.99 0.99 96 1005.2
20260505114120 60 62 2.0 3.0 0.00 0.99 0.99 96 1005.2
20260505113617 60 79 2.0 2.0 0.00 0.99 0.99 96 1005.3
20260505113114 60 80 2.0 3.0 0.00 0.99 0.99 96 1005.4
20260505112610 60 109 1.0 2.0 0.00 0.99 0.99 96 1005.1
20260505112109 60 121 0.0 0.0 0.00 0.99 0.99 96 1005.1
20260505111607 60 103 1.0 2.0 0.00 0.99 0.99 96 1005.0
20260505111103 60 120 1.0 2.0 0.00 0.99 0.99 96 1004.9
20260505110600 60 117 1.0 2.0 0.00 0.99 0.99 96 1005.2
20260505102033 59 45 2.0 3.0 0.07 0.99 0.99 95 1005.1
20260505101531 59 43 2.0 3.0 0.19 0.99 0.99 95 1005.2
20260505101027 59 77 1.0 1.0 0.12 0.98 0.98 95 1005.1
20260505100524 59 186 0.0 1.0 0.12 0.96 0.96 94 1005.2
20260505100021 59 166 0.0 2.0 0.85 0.96 0.96 94 1005.3
20260505095517 60 36 6.0 8.0 0.66 0.92 0.92 95 1005.9
20260505095014 60 326 2.0 2.0 0.05 0.82 0.82 94 1005.4
20260505094510 60 147 0.0 0.0 0.00 0.81 0.81 94 1004.8
20260505094007 60 152 0.0 2.0 0.19 0.81 0.81 94 1004.6
20260505093503 60 159 0.0 2.0 0.19 0.81 0.81 94 1004.5
20260505093000 60 166 0.0 2.0 0.00 0.78 0.78 94 1004.4
20260505092458 60 218 0.0 1.0 0.12 0.78 0.78 94 1004.6
20260505091955 60 177 2.0 4.0 0.12 0.77 0.77 94 1004.6
20260505091453 60 199 4.0 8.0 0.12 0.76 0.76 95 1004.7
20260505090951 61 149 4.0 4.0 0.12 0.75 0.75 95 1004.3
20260505090449 61 127 3.0 6.0 0.12 0.73 0.73 95 1004.5
20260505085945 61 171 2.0 3.0 0.50 0.73 0.73 95 1004.8
20260505085443 61 223 2.0 6.0 0.42 0.70 0.70 96 1005.4
20260505084942 61 251 6.0 8.0 0.17 0.65 0.65 96 1005.1
20260505084440 61 156 2.0 6.0 0.35 0.63 0.63 96 1004.9
20260505083937 61 134 3.0 8.0 0.35 0.61 0.61 96 1004.9
20260505083434 61 222 2.0 3.0 0.24 0.57 0.57 95 1005.3
20260505082930 61 219 1.0 2.0 0.19 0.55 0.55 95 1005.0
20260505082426 61 120 1.0 4.0 0.35 0.53 0.53 95 1004.8
20260505081923 61 132 3.0 6.0 0.47 0.52 0.52 95 1004.5
20260505081420 61 144 2.0 4.0 0.31 0.47 0.47 95 1004.4
20260505080917 61 249 3.0 3.0 0.12 0.43 0.43 95 1004.9
20260505080413 61 182 2.0 4.0 0.12 0.42 0.42 95 1004.1
20260505075908 61 141 0.0 2.0 0.05 0.41 0.41 95 1004.1
20260505075405 61 169 1.0 4.0 0.00 0.40 0.40 95 1004.7
20260505074903 61 226 2.0 6.0 0.07 0.40 0.40 95 1004.6
20260505074400 61 221 3.0 6.0 0.19 0.40 0.40 94 1004.9
20260505073857 61 133 1.0 3.0 0.12 0.39 0.39 94 1005.3
20260505073355 61 159 3.0 4.0 0.05 0.37 0.37 94 1006.2
20260505072852 61 116 0.0 2.0 0.12 0.37 0.37 94 1006.2
20260505072348 61 110 0.0 1.0 0.19 0.36 0.36 94 1006.2
20260505071844 61 247 2.0 2.0 0.19 0.35 0.35 93 1007.0
20260505071340 61 163 0.0 0.0 0.19 0.33 0.33 93 1006.4
20260505070839 61 165 0.0 3.0 0.17 0.32 0.32 93 1006.5
20260505070335 61 130 0.0 0.0 0.17 0.30 0.30 93 1006.6
20260505065830 62 171 0.0 0.0 0.24 0.29 0.29 93 1007.3
20260505065327 62 175 0.0 2.0 0.19 0.27 0.27 92 1007.2
20260505064824 62 223 2.0 4.0 0.19 0.25 0.25 92 1007.9
20260505064321 62 223 2.0 3.0 0.24 0.24 0.24 92 1007.9
20260505063819 62 222 1.0 3.0 0.24 0.22 0.22 91 1007.7
20260505063315 62 244 2.0 7.0 0.35 0.20 0.20 91 1007.9
20260505062812 62 246 5.0 11.0 0.54 0.18 0.18 90 1008.1
20260505062309 63 250 4.0 6.0 0.42 0.13 0.13 88 1007.9
20260505061806 63 276 5.0 7.0 0.31 0.09 0.09 87 1007.7
20260505061304 63 284 3.0 4.0 0.17 0.06 0.06 85 1007.0
20260505060801 64 264 2.0 3.0 0.12 0.04 0.04 83 1006.7
20260505060258 64 252 2.0 3.0 0.12 0.03 0.03 81 1006.4
20260505055753 65 148 2.0 7.0 0.12 0.02 0.02 80 1005.8
20260505055250 66 255 6.0 8.0 0.07 0.01 0.01 78 1005.8
20260505054747 66 243 9.0 11.0 0.00 0.00 0.00 76 1005.5
20260505054245 66 233 3.0 9.0 0.00 0.00 0.00 74 1005.4
20260505053743 67 252 3.0 4.0 0.00 0.00 0.00 72 1005.2
20260505053239 67 175 1.0 3.0 0.00 0.00 0.00 72 1005.0
20260505052737 68 312 2.0 2.0 0.00 0.00 0.00 70 1005.1
20260505052233 68 194 0.0 4.0 0.00 0.00 0.00 69 1004.8
20260505051730 68 137 3.0 8.0 0.00 0.00 0.00 68 1005.0
20260505051229 68 191 1.0 6.0 0.00 0.00 0.00 69 1004.9
20260505050726 68 70 4.0 8.0 0.00 0.00 0.00 69 1005.1
20260505050224 68 161 2.0 3.0 0.00 0.00 0.00 69 1004.9
20260505041654 66 181 1.0 3.0 0.00 0.00 0.00 72 1005.2
20260505041151 66 240 3.0 4.0 0.00 0.00 0.00 72 1005.2
20260505040648 66 195 2.0 2.0 0.00 0.00 0.00 73 1005.2
20260505040145 66 160 1.0 2.0 0.00 0.00 0.00 73 1005.3
20260505035642 66 149 1.0 3.0 0.00 0.00 0.00 73 1005.4
20260505035138 66 145 0.0 2.0 0.00 0.00 0.00 73 1005.5
20260505034634 66 141 0.0 3.0 0.00 0.00 0.00 73 1005.7
20260505034132 66 210 1.0 2.0 0.00 0.00 0.00 73 1005.8
20260505033628 66 186 1.0 2.0 0.00 0.00 0.00 73 1005.7
20260505033127 66 127 1.0 1.0 0.00 0.00 0.00 73 1005.8
20260505032625 66 135 0.0 2.0 0.00 0.00 0.00 73 1005.6
20260505032120 66 219 0.0 1.0 0.00 0.00 0.00 73 1005.7
20260505031618 66 165 0.0 1.0 0.00 0.00 0.00 72 1006.2
20260505031114 66 191 1.0 2.0 0.00 0.00 0.00 73 1006.0
20260505030611 66 171 2.0 3.0 0.00 0.00 0.00 73 1005.9
20260505030107 66 129 0.0 0.0 0.00 0.00 0.00 73 1006.0
20260505025603 66 167 2.0 3.0 0.00 0.00 0.00 72 1006.2
20260505025102 66 179 2.0 3.0 0.00 0.00 0.00 72 1005.7
20260505024559 66 161 0.0 3.0 0.00 0.00 0.00 72 1005.9
20260505024056 67 155 0.0 0.0 0.00 0.00 0.00 71 1005.9
20260505023553 67 174 0.0 0.0 0.00 0.00 0.00 70 1005.9
20260505023051 67 116 0.0 0.0 0.00 0.00 0.00 69 1005.9
20260505022548 68 163 0.0 1.0 0.00 0.00 0.00 68 1005.7
20260505022045 68 132 0.0 0.0 0.00 0.00 0.00 67 1005.5
20260505021542 69 178 0.0 0.0 0.00 0.00 0.00 66 1005.6
20260505021038 69 159 0.0 2.0 0.00 0.00 0.00 65 1005.6
20260505020538 69 222 1.0 2.0 0.00 0.00 0.00 65 1005.5
20260505020035 69 134 0.0 1.0 0.00 0.00 0.00 65 1005.3
20260505015533 69 176 1.0 2.0 0.00 0.00 0.00 65 1005.4
20260505015029 69 236 2.0 2.0 0.00 0.00 0.00 64 1005.2
20260505014526 69 196 2.0 3.0 0.00 0.00 0.00 65 1005.4
20260505014023 69 156 0.0 3.0 0.00 0.00 0.00 65 1005.4
20260505013520 69 164 0.0 3.0 0.00 0.00 0.00 64 1005.3
20260505013018 69 125 0.0 2.0 0.00 0.00 0.00 64 1005.2
20260505012516 70 236 1.0 2.0 0.00 0.00 0.00 63 1005.3
20260505012013 70 240 1.0 6.0 0.00 0.00 0.00 63 1005.2
20260505011508 70 209 1.0 6.0 0.00 0.00 0.00 62 1005.4
20260505011005 70 191 1.0 4.0 0.00 0.00 0.00 63 1005.1
20260505010501 71 145 1.0 4.0 0.00 0.00 0.00 62 1005.1
20260505005957 71 240 2.0 4.0 0.00 0.00 0.00 61 1005.2
20260505005454 71 187 5.0 7.0 0.00 0.00 0.00 60 1005.1
20260505004952 72 213 3.0 6.0 0.00 0.00 0.00 60 1005.3
20260505004448 72 163 2.0 3.0 0.00 0.00 0.00 60 1005.0
20260505003945 72 211 2.0 6.0 0.00 0.00 0.00 59 1005.2
20260505003442 73 212 1.0 2.0 0.00 0.00 0.00 59 1005.3
20260505002938 73 209 1.0 1.0 0.00 0.00 0.00 58 1005.0
20260505002435 73 183 1.0 7.0 0.00 0.00 0.00 57 1005.0
20260505001933 74 193 3.0 4.0 0.00 0.00 0.00 56 1005.1
20260505001430 74 240 3.0 7.0 0.00 0.00 0.00 56 1005.1
20260505000927 74 236 3.0 7.0 0.00 0.00 0.00 55 1004.9
20260505000427 75 228 3.0 9.0 0.00 0.00 0.00 56 1004.8
20260504235922 76 216 3.0 11.0 0.00 0.00 0.00 56 1004.8
20260504235419 76 157 0.0 1.0 0.00 0.00 0.00 57 1004.7
20260504234915 76 230 3.0 3.0 0.00 0.00 0.00 56 1004.7
20260504234413 76 249 5.0 9.0 0.00 0.00 0.00 54 1004.8
20260504233909 77 214 5.0 7.0 0.00 0.00 0.00 54 1004.7
20260504233405 77 271 6.0 8.0 0.00 0.00 0.00 52 1004.7
20260504232902 77 209 1.0 2.0 0.00 0.00 0.00 52 1004.9
20260504232359 77 192 4.0 7.0 0.00 0.00 0.00 52 1004.6
20260504231856 78 229 3.0 9.0 0.00 0.00 0.00 52 1004.5
20260504231352 78 215 7.0 10.0 0.00 0.00 0.00 50 1004.8
20260504230848 78 234 5.0 17.0 0.00 0.00 0.00 50 1004.8
20260504230346 79 75 4.0 10.0 0.00 0.00 0.00 49 1004.8
20260504225845 79 202 4.0 9.0 0.00 0.00 0.00 49 1004.7
20260504225341 79 198 4.0 8.0 0.00 0.00 0.00 49 1004.7
20260504224839 80 225 5.0 9.0 0.00 0.00 0.00 48 1004.6
20260504224335 80 230 4.0 9.0 0.00 0.00 0.00 49 1004.6
20260504223832 80 253 9.0 10.0 0.00 0.00 0.00 48 1004.6
20260504223327 80 209 4.0 10.0 0.00 0.00 0.00 48 1004.5
20260504222824 80 121 5.0 9.0 0.00 0.00 0.00 49 1004.4
20260504222321 80 103 3.0 13.0 0.00 0.00 0.00 47 1004.5
20260504221820 81 225 6.0 13.0 0.00 0.00 0.00 47 1004.6
20260504221316 81 304 2.0 7.0 0.00 0.00 0.00 51 1004.5
20260504220813 81 243 3.0 13.0 0.00 0.00 0.00 48 1004.5
20260504220310 81 196 4.0 11.0 0.00 0.00 0.00 48 1004.4
20260504215807 80 222 2.0 4.0 0.00 0.00 0.00 52 1004.5
20260504215304 81 229 3.0 8.0 0.00 0.00 0.00 49 1004.4
20260504214759 82 253 2.0 17.0 0.00 0.00 0.00 48 1004.6
20260504214256 82 221 5.0 8.0 0.00 0.00 0.00 48 1004.5
20260504213753 82 181 2.0 7.0 0.00 0.00 0.00 50 1004.6
20260504213249 82 254 4.0 7.0 0.00 0.00 0.00 47 1004.6
20260504212746 82 211 4.0 7.0 0.00 0.00 0.00 48 1004.6
20260504212242 82 248 2.0 9.0 0.00 0.00 0.00 49 1004.6
20260504211740 82 177 3.0 11.0 0.00 0.00 0.00 49 1004.7
20260504211236 82 92 6.0 9.0 0.00 0.00 0.00 48 1004.7
20260504210734 83 183 5.0 13.0 0.00 0.00 0.00 46 1004.9
20260504210231 82 226 2.0 7.0 0.00 0.00 0.00 50 1004.9
20260504205727 82 227 4.0 15.0 0.00 0.00 0.00 48 1004.9
20260504205225 81 230 6.0 11.0 0.00 0.00 0.00 48 1005.0
20260504204723 82 246 11.0 17.0 0.00 0.00 0.00 46 1005.1
20260504204222 82 242 8.0 13.0 0.00 0.00 0.00 45 1005.1
20260504203721 82 215 5.0 9.0 0.00 0.00 0.00 47 1005.0
20260504203218 82 170 3.0 14.0 0.00 0.00 0.00 48 1005.3
20260504202717 82 219 8.0 13.0 0.00 0.00 0.00 48 1005.2
20260504202215 82 125 8.0 18.0 0.00 0.00 0.00 45 1005.2
20260504201712 82 201 3.0 11.0 0.00 0.00 0.00 48 1005.3
20260504201209 82 210 5.0 7.0 0.00 0.00 0.00 49 1005.4
20260504200707 82 279 2.0 8.0 0.00 0.00 0.00 50 1005.5
20260504200202 82 209 4.0 8.0 0.00 0.00 0.00 47 1005.6
20260504195659 81 212 3.0 11.0 0.00 0.00 0.00 49 1005.6
20260504195155 81 212 5.0 11.0 0.00 0.00 0.00 49 1005.6
20260504194652 81 230 9.0 16.0 0.00 0.00 0.00 47 1005.6
20260504194148 81 235 8.0 14.0 0.00 0.00 0.00 48 1005.9
20260504193644 81 222 11.0 16.0 0.00 0.00 0.00 46 1006.0
20260504193143 81 316 7.0 17.0 0.00 0.00 0.00 47 1006.0
20260504192640 81 221 3.0 6.0 0.00 0.00 0.00 50 1005.9
20260504192138 81 170 4.0 10.0 0.00 0.00 0.00 50 1006.0
20260504191636 81 219 5.0 16.0 0.00 0.00 0.00 47 1006.2
20260504191132 81 243 7.0 13.0 0.00 0.00 0.00 49 1006.0
20260504190628 81 272 4.0 6.0 0.00 0.00 0.00 48 1006.2
20260504190125 81 160 7.0 11.0 0.00 0.00 0.00 48 1006.2
20260504185621 82 233 4.0 9.0 0.00 0.00 0.00 49 1005.9
20260504185118 81 252 6.0 8.0 0.00 0.00 0.00 48 1005.8
20260504184614 80 219 5.0 6.0 0.00 0.00 0.00 52 1005.9
20260504184109 80 198 6.0 8.0 0.00 0.00 0.00 47 1005.9
20260504183607 80 269 6.0 14.0 0.00 0.00 0.00 49 1006.0
20260504183104 80 249 7.0 11.0 0.00 0.00 0.00 50 1006.2
20260504182601 80 255 7.0 10.0 0.00 0.00 0.00 49 1006.2
20260504182059 79 190 4.0 7.0 0.00 0.00 0.00 52 1005.9
20260504181556 79 234 7.0 17.0 0.00 0.00 0.00 48 1006.4
20260504181054 79 308 8.0 14.0 0.00 0.00 0.00 49 1006.5
20260504180552 79 185 5.0 9.0 0.00 0.00 0.00 51 1006.4
20260504180051 78 253 6.0 14.0 0.00 0.00 0.00 49 1006.3
20260504175548 78 242 7.0 8.0 0.00 0.00 0.00 51 1006.5
20260504175045 78 234 5.0 10.0 0.00 0.00 0.00 50 1006.4
20260504174543 79 245 8.0 14.0 0.00 0.00 0.00 48 1006.4
20260504174039 78 217 4.0 14.0 0.00 0.00 0.00 49 1006.8
20260504173536 78 220 4.0 14.0 0.00 0.00 0.00 51 1006.6
20260504173033 78 223 8.0 11.0 0.00 0.00 0.00 51 1007.0
20260504172529 77 264 11.0 16.0 0.00 0.00 0.00 49 1006.8
20260504172026 78 250 6.0 16.0 0.00 0.00 0.00 50 1006.8
20260504171523 77 182 4.0 9.0 0.00 0.00 0.00 51 1006.5
20260504171020 77 258 6.0 14.0 0.00 0.00 0.00 51 1006.9
20260504170516 77 211 5.0 11.0 0.00 0.00 0.00 51 1007.0
20260504160436 75 227 8.0 11.0 0.00 0.00 0.00 52 1007.2
20260504150900 72 244 8.0 14.0 0.00 0.00 0.00 54 1007.6
20260504150356 72 112 3.0 10.0 0.00 0.00 0.00 55 1007.6
20260504141326 70 92 2.0 10.0 0.00 0.00 0.00 56 1008.6
20260504140823 69 227 8.0 11.0 0.00 0.00 0.00 54 1008.4
20260504140319 69 188 4.0 11.0 0.00 0.00 0.00 55 1008.3
20260504130747 66 121 2.0 8.0 0.00 0.00 0.00 59 1008.5
20260504130243 65 233 3.0 4.0 0.00 0.00 0.00 59 1008.6